Temperature
17 18 18 18 18 18 17 16 16 16 17 17 17 17 17 17 17 16 16 16 16 16 16 16 16 16 15 15 15 15 15 15 15 15 15 15 15 15 15 15 15 15 14 14
16 17 17 17 18 18 18 17 17 17 17 17 17 17 17 16 16 16 16 16 16 16 16 16 15 15 15 15 15 15 15 15 15 15 15 15 14 14 14 14 14 14 14 14
15 16 17 16 17 17 17 17 17 16 17 16 16 16 16 16 16 16 16 16 16 16 16 15 15 15 15 15 15 15 15 15 14 14 14 14 14 14 14 14 14 14 14 14
13 15 15 16 17 17 17 17 17 17 16 16 16 17 17 17 17 16 16 16 16 16 16 15 15 15 15 15 14 14 14 14 14 14 14 14 14 14 14 14 14 14 14 14
13 14 14 16 17 17 17 16 16 16 16 16 17 16 16 16 17 17 17 16 16 16 16 15 15 14 14 14 14 14 14 14 14 14 14 14 14 14 14 13 14 13 13 13
12 14 14 15 17 17 16 15 16 16 16 16 15 13 14 16 16 16 16 16 16 15 15 15 15 14 14 14 14 13 13 13 13 13 13 13 13 13 13 13 13 13 13 13
12 13 13 15 16 17 15 15 16 16 16 16 15 15 16 16 16 16 16 16 16 15 15 15 14 14 14 14 13 13 13 13 13 13 13 13 13 13 13 13 13 13 13 13
12 12 13 15 16 15 15 16 16 16 16 16 16 16 16 16 16 15 15 15 15 15 14 14 14 14 14 13 13 13 13 13 13 13 13 13 13 12 12 12 12 12 12 12
12 13 14 16 16 17 17 17 16 16 16 16 16 16 15 15 15 15 15 15 15 14 14 14 13 13 13 13 13 13 13 13 12 12 12 12 12 12 12 12 12 12 12 12
12 13 14 16 16 17 17 16 16 16 16 16 16 15 15 15 15 15 15 14 14 14 14 13 13 13 13 13 13 13 13 12 12 12 12 12 12 12 12 12 12 12 12 12
11 12 13 15 15 15 16 16 16 16 15 15 15 15 15 14 15 15 14 14 14 14 13 13 13 13 13 13 13 12 12 12 12 12 12 12 12 11 11 12 12 12 12 11
11 12 12 13 14 15 15 15 15 15 15 15 15 14 14 14 14 14 14 14 13 13 13 13 13 13 13 12 12 12 12 12 12 12 12 11 11 11 11 11 11 11 11 11
13 13 13 13 13 14 14 14 15 15 15 14 14 14 14 14 14 13 13 13 13 13 13 13 13 12 12 12 12 12 12 12 12 11 11 11 11 11 11 11 11 11 11 11
13 13 12 13 13 13 13 14 14 14 14 14 14 14 13 13 13 13 13 13 13 13 12 12 12 12 12 12 12 12 12 12 11 11 11 11 11 11 10 10 10 10 10 10
12 12 12 12 12 13 13 13 13 13 13 13 13 13 13 13 13 13 13 12 12 12 12 12 12 12 12 12 11 11 11 11 11 11 11 11 10 10 10 10 10 10 10 10
12 12 12 12 12 12 12 12 12 12 12 12 12 12 12 12 12 12 12 12 12 12 12 12 12 12 11 11 11 11 11 11 11 11 10 10 10 10 10 10 10 10 10 10
11 11 11 11 11 11 11 11 11 11 12 11 11 11 11 11 11 11 11 11 11 11 11 11 11 11 11 11 11 11 10 10 10 10 10 10 10 10 10 9 9 9 9 9
11 11 11 11 11 11 11 11 11 11 11 11 11 11 11 11 11 11 11 11 11 11 11 11 11 11 11 10 10 10 10 10 10 10 10 10 10 10 9 9 9 9 9 9
11 10 10 10 10 10 10 10 10 10 10 10 10 10 10 10 10 10 10 10 10 10 10 10 10 10 10 10 10 10 10 10 10 10 10 10 9 9 9 9 9 9 9 9
10 10 10 10 10 10 10 10 10 10 10 9 10 10 9 10 10 9 10 10 10 10 10 10 10 10 10 10 10 10 10 9 9 9 9 9 9 9 9 8 8 8 8 8
10 9 9 9 9 9 9 9 9 9 9 9 9 9 9 9 9 9 9 9 9 9 9 9 9 9 9 9 9 9 9 9 9 9 9 9 8 8 8 8 8 8 8 8
9 9 9 9 9 9 8 8 8 8 8 8 8 8 9 9 9 9 9 9 9 9 9 9 9 9 9 9 9 9 9 9 8 8 8 8 8 8 8 8 8 8 8 8
8 8 8 8 8 8 8 8 8 8 8 8 8 8 8 8 8 8 8 8 8 8 8 8 8 9 8 8 8 8 8 8 8 8 8 8 8 8 7 7 7 7 7 7
8 8 8 8 8 8 7 7 7 7 7 7 7 7 7 7 8 8 8 8 8 8 8 8 8 8 8 8 8 8 8 7 7 7 7 7 7 7 7 7 7 7 7 7
7 7 7 7 7 7 7 7 7 7 7 7 7 7 7 7 7 7 7 7 7 7 7 7 7 7 7 7 7 7 7 7 7 7 7 7 7 7 6 6 6 6 6 6
6 7 7 7 7 7 7 6 6 6 6 6 6 6 6 6 6 7 7 7 7 7 7 7 7 7 7 7 7 6 6 6 6 6 6 6 6 6 6 6 6 6 6 6
6 6 6 6 6 6 6 6 6 6 6 6 6 6 6 6 6 6 6 6 6 6 6 6 6 6 6 6 6 6 6 6 6 5 5 5 5 5 6 6 6 6 6 6
Wind_Speed
6 6 4 4 7 5 5 7 7 7 6 6 6 5 4 4 3 3 3 3 4 3 3 2 2 2 2 2 2 4 4 4 4 4 3 3 3 2 2 3 4 4 5 4
4 4 3 5 7 6 6 4 5 4 5 6 4 1 2 3 4 4 4 5 5 4 3 3 3 3 2 2 2 3 4 4 3 3 3 3 2 2 2 2 2 3 4 4
4 5 4 4 5 4 3 3 5 6 7 3 1 2 4 5 5 5 5 5 5 5 5 4 4 3 3 3 2 3 3 3 2 3 3 3 3 3 3 2 2 2 3 4
2 2 5 6 3 3 3 3 3 3 4 4 5 4 4 4 5 5 5 5 6 5 5 4 3 2 3 3 3 3 3 2 2 3 3 3 4 3 2 2 2 2 2 3
3 3 6 6 4 2 2 4 4 3 2 2 1 2 3 3 3 5 6 6 6 6 5 4 4 3 4 3 3 3 3 3 3 4 4 3 4 3 3 2 2 2 2 3
4 3 6 7 5 2 2 4 4 2 2 1 2 1 5 5 3 3 3 3 4 5 4 4 4 4 5 3 3 3 3 3 3 4 5 4 4 3 2 2 2 2 2 2
5 5 7 6 5 2 2 6 4 2 2 3 3 5 5 3 2 2 2 3 4 5 5 5 4 5 5 4 4 5 3 3 3 4 5 4 4 3 3 3 2 2 2 2
5 5 7 4 1 4 6 4 2 1 2 3 3 2 1 1 1 1 1 2 3 4 4 4 5 5 5 5 5 3 3 3 3 4 4 3 4 3 3 3 3 2 2 1
7 7 6 3 5 5 4 3 3 2 2 2 1 2 2 1 2 2 3 2 3 4 3 3 5 6 7 6 4 3 3 4 3 3 3 4 4 4 3 3 3 2 2 2
3 4 4 4 2 2 2 3 2 2 2 1 2 2 2 2 2 2 2 2 2 3 3 4 4 6 6 5 5 5 5 4 3 3 3 3 3 3 4 4 4 3 3 4
3 4 4 4 3 2 2 1 1 1 1 2 2 2 3 3 3 3 3 2 3 4 5 5 5 5 5 5 5 5 5 4 3 3 4 3 3 4 5 5 6 6 5 5
6 5 4 6 5 4 2 2 3 2 1 2 3 3 2 3 3 3 3 3 3 3 4 5 5 4 4 5 6 6 5 4 4 3 3 3 3 2 4 5 6 8 8 7
5 5 4 5 5 4 3 3 3 3 3 3 2 2 2 2 3 3 3 4 4 4 4 4 5 5 5 5 6 6 6 5 4 4 3 3 3 3 2 2 3 5 7 8
4 2 4 4 5 5 4 3 3 2 2 2 2 2 1 2 3 4 5 5 5 4 4 4 4 5 5 5 6 6 5 6 5 4 4 4 4 4 4 4 3 3 4 6
6 4 5 6 5 5 3 2 2 3 3 3 2 2 3 3 4 5 6 4 3 3 4 4 5 5 4 5 6 6 5 4 4 4 4 4 4 4 4 4 4 3 2 2
6 5 4 4 5 5 4 2 2 4 3 4 4 4 4 4 4 4 4 3 3 4 5 4 5 5 4 4 5 5 5 6 5 4 3 4 4 4 4 4 4 4 4 4
5 5 5 5 5 5 4 4 3 4 4 4 5 5 4 3 2 3 3 3 3 4 4 4 5 4 4 4 5 4 4 5 6 4 4 5 5 5 5 4 5 5 5 5
7 7 6 5 5 4 5 4 3 4 4 5 5 3 3 3 3 4 4 3 2 2 3 4 4 3 3 4 4 4 4 4 4 4 4 4 5 5 4 4 5 5 4 4
5 5 4 4 4 5 5 5 5 4 4 4 3 3 3 3 3 3 3 2 2 3 5 4 4 3 3 4 4 3 4 4 4 3 4 4 4 4 4 4 4 5 5 4
4 4 4 4 4 4 5 4 4 4 4 3 3 3 3 3 3 3 2 3 4 4 4 3 3 3 3 4 4 3 4 4 4 3 3 3 4 4 4 4 4 4 4 4
3 3 3 3 4 4 4 3 3 3 4 3 3 3 3 3 3 2 2 3 4 3 2 2 2 2 3 3 3 3 3 3 3 3 4 4 3 4 4 4 4 4 4 4
3 3 3 3 3 3 3 3 2 3 3 3 3 2 2 2 2 2 3 3 4 3 1 1 2 2 2 2 2 2 3 3 3 3 3 3 4 4 4 4 4 4 4 4
2 2 2 3 3 3 3 2 2 2 2 3 3 3 3 3 2 2 3 3 2 2 1 1 1 1 1 1 2 2 3 3 3 3 3 3 4 4 4 4 4 4 4 4
3 3 3 3 2 1 3 4 3 2 2 3 3 3 2 2 2 3 3 3 3 2 1 1 1 1 0 1 1 2 2 2 3 3 3 3 3 3 3 3 4 4 4 4
3 3 2 2 2 3 3 3 3 2 2 2 3 3 2 2 2 3 2 2 2 1 1 2 2 2 1 1 1 1 2 2 2 2 2 2 3 3 3 3 3 3 3 4
3 3 3 3 3 3 2 2 2 2 1 2 3 3 3 2 1 1 1 2 1 1 1 1 2 2 1 1 2 2 2 2 2 2 2 2 2 2 2 2 3 3 3 3
3 3 2 2 2 2 2 2 2 3 2 2 3 3 2 2 1 1 1 1 1 1 1 1 1 1 1 1 1 1 1 1 1 1 1 2 2 2 2 2 3 3 3 3
Wind_Direction
235 250 243 249 260 247 212 202 203 229 231 253 250 240 233 212 179 160 160 168 176 182 188 187 192 195 185 195 185 168 158 159 178 184 174 167 164 159 159 172 184 179 167 171
280 275 280 281 275 255 238 222 208 223 257 253 239 226 225 206 184 188 197 198 193 191 192 197 199 199 191 191 179 157 158 168 173 166 164 160 152 135 133 142 161 160 167 173
268 297 335 279 256 230 218 230 200 221 244 246 204 216 215 212 202 202 211 207 199 204 205 204 202 189 191 191 167 150 152 151 152 165 167 165 155 134 137 141 128 148 173 170
236 339 252 248 256 176 184 258 234 221 226 204 203 219 226 209 205 214 210 206 205 206 208 205 195 181 165 157 156 159 158 156 158 168 171 163 147 151 160 149 142 155 169 170
159 228 270 288 288 228 202 274 264 224 239 227 224 26 334 289 215 215 214 206 203 199 196 186 186 177 151 146 155 165 179 185 187 185 176 163 162 166 165 153 159 177 182 175
157 197 235 249 274 280 115 267 276 225 214 207 85 30 280 286 259 246 237 206 187 183 175 176 189 168 155 167 170 194 204 203 201 190 177 173 181 178 169 165 180 184 194 185
187 217 252 253 276 37 171 246 270 227 190 165 198 225 245 262 269 252 232 193 170 167 178 191 184 165 167 179 205 218 214 201 193 188 184 179 175 169 162 160 160 170 181 191
180 205 245 257 158 179 221 241 232 216 197 191 224 246 232 243 250 204 168 168 161 169 190 193 181 173 182 204 216 207 197 194 186 188 188 174 164 169 166 159 160 166 164 184
196 217 241 240 206 215 189 198 223 212 234 183 209 237 234 233 228 201 189 191 182 176 189 201 192 187 196 213 204 193 191 191 193 188 179 168 170 173 168 163 169 184 186 201
246 264 277 271 243 233 191 197 224 211 197 188 212 235 249 246 241 224 216 212 197 175 187 209 207 203 204 202 191 183 186 192 191 186 184 179 179 179 181 185 190 197 204 211
256 274 318 310 298 268 249 214 166 209 238 210 190 235 237 236 243 237 229 215 198 199 206 211 209 211 208 191 179 179 186 191 191 192 189 190 198 202 202 206 200 202 212 208
234 238 225 261 281 287 267 245 212 196 252 251 211 216 238 245 242 230 221 223 224 221 213 209 200 207 206 192 178 177 186 191 194 193 192 192 203 243 251 230 223 217 214 212
233 251 243 262 285 296 269 267 249 224 217 235 242 221 221 250 244 235 234 231 225 227 222 211 207 210 206 194 186 188 193 196 195 193 195 198 198 201 238 295 281 238 227 222
249 258 279 282 282 294 297 295 290 285 251 226 236 249 245 252 243 232 232 232 230 228 224 212 211 217 211 194 189 197 199 200 196 197 199 201 206 210 208 214 244 271 259 229
261 242 240 263 283 294 300 315 329 314 311 303 285 269 260 254 249 241 236 230 222 220 223 212 212 224 214 197 196 201 202 200 200 200 202 204 207 212 217 217 224 239 255 251
255 260 254 259 272 284 289 286 283 287 293 294 290 283 268 249 250 244 240 224 214 225 225 216 219 224 209 197 196 201 206 213 205 203 206 209 210 213 220 221 224 227 228 227
234 250 253 259 266 274 273 264 258 269 279 286 278 278 280 273 272 272 260 240 227 231 230 227 228 218 202 198 198 206 205 210 212 214 214 214 213 217 219 220 226 231 232 222
227 232 233 231 242 258 266 268 264 269 273 276 282 286 281 266 259 262 260 256 264 275 261 242 233 216 210 205 202 201 200 205 207 212 218 217 217 218 217 221 228 234 239 229
230 235 247 252 250 245 251 258 264 267 271 273 273 270 260 257 256 264 267 251 245 263 267 253 244 224 216 218 210 197 195 201 209 220 219 218 219 221 219 223 228 233 227 219
242 243 250 267 275 270 264 264 271 284 282 263 254 259 269 267 265 263 256 253 251 249 246 236 222 216 220 219 214 198 195 198 206 216 218 213 217 223 224 226 227 230 227 221
241 247 254 264 272 278 269 266 269 284 291 280 253 250 257 265 268 256 249 273 287 274 245 240 229 227 219 216 208 192 190 195 202 209 212 213 219 225 229 230 231 234 231 230
264 253 256 260 269 283 286 279 274 279 288 288 277 269 265 272 276 266 254 253 269 280 263 231 235 234 219 205 190 191 200 206 208 209 211 213 218 223 228 232 233 237 238 234
288 268 262 262 259 269 286 289 285 287 296 291 280 271 258 257 247 242 276 285 277 280 283 254 273 249 211 182 190 197 204 210 215 218 218 217 220 223 227 234 238 240 244 242
298 290 280 276 277 287 291 290 285 284 293 291 275 264 255 265 284 271 262 279 294 292 286 301 345 342 196 197 198 203 214 223 227 231 231 231 230 232 231 234 241 245 246 246
286 284 290 293 279 267 269 286 295 293 305 309 302 298 288 259 259 273 281 285 295 300 306 309 310 303 273 259 230 228 230 232 231 229 231 238 240 243 245 241 244 248 249 247
276 273 270 261 255 257 262 273 279 280 280 298 301 299 298 298 288 280 281 285 287 306 311 302 284 273 260 250 243 241 241 249 255 253 251 248 248 247 251 254 257 255 255 252
288 288 287 291 288 267 257 259 256 259 254 253 280 288 283 285 287 285 283 292 297 301 304 304 287 265 262 259 260 254 246 245 247 252 255 255 254 252 253 257 259 259 259 255
Height
1523 1520 1518 1519 1518 1517 1521 1525 1530 1526 1522 1517 1513 1512 1510 1510 1510 1511 1511 1511 1512 1512 1513 1514 1514 1515 1516 1517 1518 1519 1520 1521 1522 1523 1524 1525 1526 1527 1528 1529 1529 1530 1531 1532
1523 1518 1517 1518 1515 1514 1515 1516 1518 1517 1517 1510 1508 1509 1509 1509 1509 1509 1509 1510 1510 1511 1511 1511 1512 1513 1514 1515 1516 1517 1518 1519 1520 1520 1521 1523 1524 1525 1526 1527 1527 1528 1529 1530
1531 1522 1519 1523 1514 1513 1514 1512 1512 1516 1512 1507 1508 1507 1507 1506 1506 1507 1507 1508 1508 1508 1509 1509 1510 1511 1512 1513 1514 1515 1515 1517 1518 1518 1519 1520 1522 1523 1524 1524 1525 1526 1526 1527
1532 1528 1533 1519 1507 1507 1509 1509 1507 1506 1505 1505 1504 1504 1504 1503 1503 1503 1504 1505 1505 1506 1506 1507 1508 1509 1510 1511 1512 1513 1513 1514 1515 1516 1517 1518 1519 1520 1521 1522 1523 1523 1524 1525
1534 1534 1528 1515 1507 1506 1509 1510 1505 1504 1503 1502 1502 1502 1501 1501 1501 1501 1501 1501 1502 1503 1504 1505 1506 1507 1508 1509 1510 1511 1512 1513 1513 1514 1515 1516 1517 1518 1519 1520 1521 1521 1522 1523
1531 1532 1531 1515 1504 1502 1506 1511 1503 1501 1501 1501 1501 1505 1502 1499 1498 1498 1498 1498 1498 1500 1501 1503 1504 1505 1506 1507 1507 1508 1509 1510 1511 1512 1513 1514 1515 1516 1517 1518 1518 1519 1520 1520
1528 1529 1521 1507 1502 1503 1515 1511 1501 1499 1499 1499 1499 1500 1498 1496 1496 1495 1495 1496 1496 1497 1498 1500 1501 1502 1503 1504 1505 1506 1507 1508 1509 1510 1511 1512 1513 1514 1514 1515 1516 1516 1517 1518
1524 1527 1521 1502 1501 1505 1504 1500 1499 1498 1497 1497 1497 1496 1495 1494 1493 1493 1493 1493 1494 1494 1495 1497 1498 1499 1500 1501 1502 1503 1504 1505 1506 1507 1508 1509 1510 1511 1512 1513 1513 1513 1514 1515
1513 1512 1502 1499 1498 1498 1498 1498 1497 1496 1495 1495 1494 1493 1493 1492 1492 1492 1491 1491 1492 1492 1493 1494 1495 1496 1497 1498 1499 1500 1501 1502 1503 1505 1506 1507 1507 1508 1509 1510 1510 1511 1511 1512
1507 1502 1499 1497 1496 1496 1496 1496 1495 1494 1494 1493 1492 1491 1491 1490 1490 1489 1489 1489 1490 1490 1490 1491 1492 1493 1494 1495 1496 1497 1498 1499 1501 1502 1502 1503 1504 1505 1506 1506 1507 1507 1508 1508
1504 1500 1498 1496 1496 1495 1494 1493 1493 1492 1492 1491 1490 1489 1489 1488 1488 1487 1487 1487 1487 1487 1487 1488 1489 1490 1491 1492 1493 1494 1495 1496 1497 1498 1499 1500 1501 1502 1502 1503 1504 1504 1505 1505
1502 1498 1498 1496 1494 1494 1492 1491 1490 1489 1489 1489 1488 1487 1486 1486 1486 1485 1485 1485 1485 1485 1485 1485 1486 1487 1488 1489 1490 1490 1491 1492 1494 1495 1496 1497 1497 1498 1499 1500 1500 1501 1502 1502
1496 1495 1495 1494 1492 1491 1490 1489 1488 1487 1486 1486 1485 1485 1483 1483 1483 1483 1483 1482 1482 1482 1482 1482 1483 1483 1485 1486 1486 1487 1487 1488 1490 1491 1492 1492 1493 1494 1494 1495 1496 1497 1497 1498
1493 1493 1491 1490 1489 1488 1487 1486 1485 1484 1483 1483 1482 1481 1480 1480 1480 1479 1479 1479 1479 1479 1479 1479 1480 1480 1481 1482 1482 1483 1484 1485 1486 1487 1488 1488 1489 1490 1490 1490 1491 1491 1492 1493
1489 1489 1488 1487 1486 1485 1484 1483 1482 1481 1480 1479 1478 1478 1476 1476 1475 1475 1475 1475 1475 1475 1475 1475 1476 1476 1477 1478 1478 1479 1480 1481 1482 1483 1484 1485 1485 1486 1486 1486 1487 1487 1487 1488
1485 1485 1484 1483 1482 1482 1481 1480 1479 1478 1477 1476 1475 1474 1473 1472 1471 1471 1471 1471 1471 1470 1471 1471 1471 1472 1473 1473 1474 1474 1475 1476 1478 1479 1479 1480 1481 1481 1481 1482 1482 1482 1482 1483
1480 1479 1479 1479 1479 1478 1478 1477 1476 1475 1474 1473 1472 1470 1469 1468 1467 1467 1467 1467 1467 1467 1467 1467 1467 1468 1469 1469 1470 1470 1471 1472 1473 1474 1475 1475 1476 1476 1477 1477 1477 1477 1478 1478
1476 1476 1476 1476 1475 1475 1474 1473 1473 1472 1471 1470 1469 1467 1465 1464 1462 1462 1462 1463 1463 1463 1463 1463 1463 1464 1464 1465 1465 1466 1467 1467 1468 1469 1470 1471 1471 1471 1472 1472 1472 1472 1472 1473
1472 1472 1472 1472 1471 1471 1470 1469 1468 1467 1467 1466 1464 1463 1461 1460 1459 1459 1459 1459 1458 1458 1458 1459 1459 1460 1460 1461 1461 1462 1462 1463 1464 1464 1465 1466 1466 1466 1467 1467 1467 1467 1467 1468
1468 1468 1468 1467 1467 1467 1466 1465 1464 1463 1462 1461 1460 1459 1457 1456 1456 1455 1455 1454 1454 1454 1455 1455 1456 1456 1456 1457 1458 1458 1458 1458 1459 1460 1460 1461 1461 1461 1462 1462 1462 1462 1462 1462
1464 1464 1463 1463 1462 1462 1461 1461 1460 1459 1458 1457 1456 1454 1453 1453 1452 1452 1451 1450 1451 1452 1452 1452 1452 1452 1453 1453 1454 1454 1454 1454 1455 1455 1456 1456 1456 1457 1457 1457 1457 1457 1457 1457
1460 1460 1459 1459 1458 1458 1457 1457 1456 1455 1454 1453 1452 1451 1450 1449 1449 1449 1449 1448 1448 1448 1448 1448 1448 1449 1449 1449 1450 1450 1450 1450 1451 1451 1451 1452 1452 1452 1452 1452 1452 1451 1452 1452
1457 1457 1456 1456 1455 1454 1454 1453 1452 1451 1450 1449 1448 1448 1447 1446 1446 1446 1445 1445 1445 1445 1445 1445 1445 1445 1446 1446 1446 1446 1446 1446 1447 1447 1447 1447 1447 1447 1447 1447 1447 1447 1447 1446
1455 1454 1454 1453 1452 1451 1450 1449 1448 1448 1447 1446 1445 1445 1444 1443 1442 1442 1443 1442 1442 1442 1442 1442 1442 1442 1442 1442 1442 1442 1442 1442 1442 1443 1443 1443 1443 1443 1443 1442 1442 1442 1441 1441
1452 1451 1450 1449 1448 1447 1446 1446 1445 1444 1443 1442 1442 1442 1441 1440 1439 1439 1439 1438 1438 1438 1438 1438 1438 1438 1438 1438 1438 1438 1438 1438 1438 1438 1438 1438 1438 1438 1438 1437 1437 1437 1436 1436
1448 1447 1446 1445 1445 1444 1443 1443 1442 1441 1440 1439 1439 1438 1438 1437 1436 1436 1436 1435 1435 1435 1435 1435 1435 1435 1434 1434 1434 1434 1434 1434 1434 1434 1434 1434 1433 1433 1433 1432 1432 1432 1431 1431
1445 1444 1443 1442 1441 1440 1440 1439 1438 1438 1437 1437 1436 1435 1434 1434 1433 1433 1432 1432 1432 1432 1432 1431 1431 1431 1431 1431 1430 1430 1430 1430 1430 1429 1429 1429 1429 1428 1427 1427 1427 1427 1426 1425